#timestamp,LO_Frequency,Hit,StdDev 
1675274415.8,286046996.4,N
1675274435.7,286046994.9,N
1675274455.5,286046994.3,N
1675274475.3,286046994.8,N
1675274495.2,286046995.4,N
1675274515.9,286046996.4,N
1675274535.7,286046994.6,N
1675274555.6,286046996.3,N
1675274575.4,286046994.6,N
1675274595.3,286046993.1,Y
1675274615.1,286046993.8,P
1675274616.0,286046993.8,P
1675274635.8,286046994.0,P
1675274655.7,286046996.9,Y
1675274675.5,286047001.7,P
1675274695.3,286047002.3,N
1675274715.2,286047001.7,N
1675274735.0,286047003.3,N
1675274735.9,286047003.3,N
1675274755.8,286047003.0,N
1675274775.6,286047009.1,Y
1675274795.4,286047007.0,P
1675274815.3,286047006.7,N
1675274835.1,286047006.7,N
1675274855.8,286047004.7,N
1675274875.7,286047005.6,N
1675274895.5,286047006.8,Y
1675274915.4,286047001.6,P
1675274935.2,286047004.0,N
1675274955.0,286047000.4,N
1675274955.9,286047000.4,N
1675274975.8,286047000.8,N
1675274995.6,286046996.6,N
1675275015.5,286046999.4,N
1675275035.3,286046997.6,N
1675275055.1,286047000.3,N
1675275075.9,286046999.4,N
1675275095.7,286046997.2,N
1675275115.5,286046999.2,N
1675275135.4,286046999.3,N
1675275155.2,286047001.0,N
1675275175.1,286046999.3,N
1675275176.0,286046999.3,N
1675275195.8,286047000.7,N
1675275215.6,286046999.8,N
1675275235.5,286046999.8,N
1675275255.3,286046999.1,N
1675275275.1,286046996.5,N
1675275295.9,286047002.8,N
1675275315.7,286047005.8,N
1675275335.6,286047002.7,N
1675275355.4,286046998.2,N
1675275375.2,286046998.9,N
1675275395.1,286046999.8,N
1675275396.0,286046999.8,N
1675275415.8,286047002.5,N
1675275435.6,286047000.7,N
1675275455.5,286046999.0,N
1675275475.3,286046996.6,N
1675275495.2,286046995.8,N
1675275515.9,286046994.9,N
1675275535.7,286046998.3,N
1675275555.6,286047004.0,N
1675275575.4,286047003.7,N
1675275595.2,286047002.4,N
1675275615.1,286046999.0,N
1675275616.0,286046999.0,N
1675275635.8,286046999.2,N
1675275655.7,286046998.1,N
1675275675.5,286047000.1,N
1675275695.3,286047000.5,N
1675275715.2,286047000.9,N
1675275735.0,286046998.5,N
1675275735.9,286046998.5,N
1675275755.8,286047001.0,N
1675275775.6,286047002.1,N
1675275795.4,286046999.9,N
1675275815.3,286047000.7,N
1675275835.1,286047002.5,N
1675275855.8,286046999.8,N
1675275875.7,286047000.6,N
1675275895.5,286046999.7,N
1675275915.4,286046998.7,N
1675275935.2,286046997.4,N
1675275955.0,286047000.3,N
1675275955.9,286047000.3,N
1675275975.8,286046999.6,N
1675275995.6,286046997.0,N
1675276015.5,286046999.5,N
1675276035.3,286047000.3,N
1675276055.1,286046999.7,N
1675276075.9,286046998.7,N
1675276095.7,286046996.8,N
1675276115.6,286047001.1,N
1675276135.4,286047000.9,N
1675276155.2,286046999.3,N
1675276175.1,286046996.5,N
1675276176.0,286046996.5,N
1675276195.8,286047000.8,N
1675276215.7,286047003.6,N
1675276235.5,286047003.5,N
1675276255.3,286047002.8,N
1675276275.2,286047003.8,N
1675276295.0,286047001.4,N
1675276295.9,286047001.4,N
1675276315.8,286047006.3,Y
1675276335.6,286047004.2,P
1675276355.4,286047002.3,N
1675276375.3,286047000.4,N
1675276395.1,286047000.3,N
1675276415.9,286047001.3,N
1675276435.7,286047000.0,N
1675276455.5,286046999.5,N
1675276475.4,286047000.7,N
1675276495.2,286047002.4,N
1675276515.0,286047004.4,Y
1675276516.0,286047004.4,P
1675276535.8,286047005.9,P
1675276555.6,286047005.7,N
1675276575.5,286047003.4,N
1675276595.3,286047001.6,N
1675276615.1,286047002.0,N
1675276635.9,286047000.7,N
1675276655.7,286046999.0,N
1675276675.6,286046997.5,N
1675276695.4,286046995.0,N
1675276715.2,286046995.5,N
1675276735.1,286046998.6,N
1675276736.0,286046998.6,N
1675276755.8,286046995.4,N
1675276775.7,286046995.7,N
1675276795.5,286046997.3,N
1675276815.3,286047000.8,N
1675276835.2,286047000.2,N
1675276855.9,286046998.5,N
1675276875.7,286047001.2,N
1675276895.6,286047001.1,N
1675276915.4,286046998.5,N
1675276935.2,286047000.1,N
1675276955.1,286047001.3,N
1675276956.0,286047001.3,N
1675276975.8,286047002.6,N
1675276995.7,286047001.2,N
1675277015.5,286046996.8,N
1675277035.3,286046997.5,N
1675277055.2,286046995.8,N
1675277075.0,286046993.3,N
1675277075.9,286046993.3,N
1675277095.8,286046997.2,N
1675277115.6,286046999.2,N
1675277135.4,286046998.9,N
1675277155.3,286046999.4,N
1675277175.1,286047000.0,N
1675277195.8,286047002.0,N
1675277215.7,286047001.3,N
1675277235.5,286047001.3,N
1675277255.4,286047001.1,N
1675277275.2,286047001.1,N
1675277295.0,286047000.0,N
1675277295.9,286047000.0,N
1675277315.8,286047002.3,N
1675277335.6,286047003.9,N
1675277355.4,286047004.4,N
1675277375.3,286047001.6,N
1675277395.1,286047001.7,N
1675277415.9,286047004.3,N
1675277435.7,286047004.1,N
1675277455.5,286047003.8,N
1675277475.4,286047004.1,N
1675277495.2,286047002.8,N
1675277515.1,286046998.1,N
1675277516.0,286046998.1,N
1675277535.8,286046997.1,N
1675277555.6,286046999.5,N
1675277575.5,286046997.9,N
1675277595.3,286047001.0,N
1675277615.1,286046999.9,N
1675277635.9,286046999.4,N
1675277655.7,286046998.9,N
1675277675.6,286046999.4,N
1675277695.4,286046994.9,N
1675277715.2,286046996.5,N
1675277735.1,286046996.2,N
1675277736.0,286046996.2,N
1675277755.8,286046994.6,N
1675277775.6,286046994.4,N
1675277795.5,286046994.1,N
1675277815.3,286046991.7,N
1675277835.2,286046994.8,N
1675277855.9,286046996.1,N
1675277875.7,286046995.6,N
1675277895.6,286046996.8,N
1675277915.4,286046997.9,N
1675277935.2,286046995.5,N
1675277955.1,286046998.7,N
1675277956.0,286046998.7,N
1675277975.8,286046997.0,N
1675277995.7,286046995.5,N
